This is the latest recevied weather packets stored in our database for station/object W2SRH. If no packets are shown the sender has not sent any weather packets the latest 1 day(s).
| Time | Temp. | Humidity | Pressure | Rain* | Wind** | Luminosity | Snow |
|---|---|---|---|---|---|---|---|
| 1836274317 | 19.44° C | 64% | - | - | 0.45 m/s, 16° | - | - |
| 1836274167 | 19.44° C | 64% | - | - | 0.45 m/s, 13° | - | - |
| 1778047745 | 18.89° C | 66% | 1001.6 hPa | 0 mm | 0.45 m/s, 170° | - | - |
| 1778047145 | 19.44° C | 66% | 1001.5 hPa | 0 mm | 0.89 m/s, 208° | - | - |
| 1778046545 | 19.44° C | 65% | 1001.7 hPa | 0 mm | 0.45 m/s, 200° | - | - |
| 1778045945 | 19.44° C | 64% | 1001.8 hPa | 0 mm | 0.45 m/s, 283° | - | - |
| 1778045886 | 19.44° C | 63% | 1002.1 hPa | 0 mm | 0.45 m/s, 199° | - | - |
| 1778045345 | 19.44° C | 64% | 1001.8 hPa | 0 mm | 0.45 m/s, 191° | - | - |
| 1778044745 | 19.44° C | 63% | 1001.9 hPa | 0 mm | 0.45 m/s, 200° | - | - |
| 1778044144 | 19.44° C | 63% | 1002.1 hPa | 0 mm | 0.45 m/s, 199° | - | - |
| 1778043551 | 19.44° C | 62% | 1002 hPa | 0 mm | 0.45 m/s, 150° | - | - |
| 1778042944 | 19.44° C | 62% | 1002.1 hPa | 0 mm | 0.45 m/s, 224° | - | - |
| 1778042344 | 19.44° C | 61% | 1002.2 hPa | 0 mm | 0.45 m/s, 195° | - | - |
| 1778041744 | 20° C | 61% | 1002.2 hPa | 0 mm | 0.45 m/s, 171° | - | - |
| 1778041144 | 20° C | 60% | 1002.1 hPa | 0 mm | 0.45 m/s, 171° | - | - |
| 1778040544 | 20° C | 59% | 1002.1 hPa | 0 mm | 0.45 m/s, 181° | - | - |
| 1778039944 | 20° C | 58% | 1002 hPa | 0 mm | 0.45 m/s, 208° | - | - |
| 1778039344 | 20° C | 58% | 1001.9 hPa | 0 mm | 0.45 m/s, 222° | - | - |
| 1778038745 | 20.56° C | 57% | 1001.9 hPa | 0 mm | 0.89 m/s, 194° | - | - |
| 1778038145 | 20.56° C | 56% | 1002 hPa | 0 mm | 0.45 m/s, 182° | - | - |
| 1778037545 | 20.56° C | 56% | 1002.1 hPa | 0 mm | 0.45 m/s, 191° | - | - |
| 1778036946 | 20.56° C | 55% | 1002 hPa | 0 mm | 0.45 m/s, 189° | - | - |
| 1778036345 | 20.56° C | 54% | 1002.1 hPa | 0 mm | 0.45 m/s, 191° | - | - |
| 1778035745 | 20.56° C | 54% | 1002 hPa | 0 mm | 0.45 m/s, 233° | - | - |
| 1778035145 | 21.11° C | 53% | 1002.1 hPa | 0 mm | 0.89 m/s, 246° | - | - |
* Rain since midnight (hover to see other rain measurements)
** Current wind speed in m/s (hover to see current wind gust speed)